Weather in Mezhyrich

Ukraine / Sumi District     50°42′02″N   34°28′28″E
temp.,
°C
wind,
m/s
gust,
m/s
humid.,
%
clouds,
%
prec.,
mm/h
press.,
hPa
HPBL,
m
26 july, mon
mon2600:00+19ese365729 0.0 1021110
03:00+17ese34574 0.0 102248
06:00+16ese22657 0.0 102225
09:00+23se354941 0.0 1022428
12:00+27ese343545 0.0 10221637
15:00+29e333024 0.0 10212673
18:00+28e34333 0.0 10201546
21:00+22e49481 0.0 1021156
27 july, tue
tue2700:00+20ese49499 0.0 1022142
03:00+20ese3650100 0.0 1022105
06:00+19ese355767 0.0 102284
09:00+25se45432 0.0 1022492
12:00+29se33334 0.0 10211954
15:00+30se2330100 0.0 10192642
18:00+28se2338100 0.0 1018200
21:00+24e334237 0.0 101834
28 july, wed
wed2800:00+22se374542 0.0 1019139
03:00+21sse374851 0.0 1017131
06:00+22sse395196 0.0 1016222
09:00+24ssw4853100 0.1 1016404
12:00+23s61163100 0.3 1015409
15:00+30ssw693893 0.6 10132072
18:00+27ssw486123 1.2 1011855
21:00+19sse6898100 33.1 1015270
29 july, thu
thu2900:00+20w22850 0.6 101323
03:00+18wsw37932 0.6 1013143
06:00+18w349221 0.0 101393
09:00+23nw347275 0.0 1013315
12:00+28wnw22517 0.0 10131291
15:00+29wnw23423 0.0 10121963
18:00+29sw225042 0.0 1011971
21:00+24ene2261100 0.0 101130
30 july, fri
fri3000:00+23se2362100 0.0 101253
03:00+21sse2268100 0.0 101114
06:00+20sse228162 0.4 101237
09:00+24ese346836 0.6 1011387
12:00+29ssw345036 0.0 10111029
15:00+30wsw454616 0.0 10101809
18:00+29w45496 0.0 1009829
21:00+23w23660 0.0 101028